EN

Hourly Weather Laczno

Today, 25 July, Sunday

Time Temperature Precipitation Wind Pressure Humidity
00:00 +18°C° 0 mm 3 mps 747 mmHg 77%
01:00 +18°C° 0 mm 3 mps 746 mmHg 80%
02:00 +18°C° 0 mm 3 mps 746 mmHg 79%
03:00 +18°C° 0 mm 3 mps 746 mmHg 79%
04:00 +18°C° 0 mm 3 mps 746 mmHg 78%
05:00 +19°C° 0 mm 3 mps 746 mmHg 73%
06:00 +20°C° 0 mm 3 mps 746 mmHg 68%
07:00 +21°C° 0 mm 4 mps 746 mmHg 63%
08:00 +23°C° 0 mm 4 mps 746 mmHg 58%
09:00 +26°C° 0 mm 4 mps 746 mmHg 53%
10:00 +27°C° 0 mm 5 mps 746 mmHg 47%
11:00 +28°C° 0 mm 5 mps 745 mmHg 45%
12:00 +29°C° 0 mm 4 mps 745 mmHg 42%
13:00 +30°C° 0 mm 4 mps 745 mmHg 39%
14:00 +30°C° 0 mm 4 mps 745 mmHg 40%
15:00 +30°C° 0 mm 4 mps 745 mmHg 42%
16:00 +29°C° 0 mm 4 mps 745 mmHg 43%
17:00 +28°C° 0 mm 4 mps 745 mmHg 47%
18:00 +27°C° 0 mm 4 mps 745 mmHg 52%
19:00 +26°C° 0 mm 3 mps 745 mmHg 56%
20:00 +24°C° 0 mm 3 mps 745 mmHg 62%
21:00 +23°C° 0 mm 2 mps 745 mmHg 69%
22:00 +20°C° 0 mm 2 mps 746 mmHg 75%
23:00 +19°C° 0 mm 2 mps 746 mmHg 77%

Tomorrow, 26 July, Monday

Time Temperature Precipitation Wind Pressure Humidity
00:00 +19°C° 0 mm 2 mps 746 mmHg 79%
01:00 +18°C° 0 mm 2 mps 746 mmHg 80%
02:00 +18°C° 0 mm 2 mps 746 mmHg 81%
03:00 +18°C° 0 mm 2 mps 746 mmHg 83%
04:00 +18°C° 0 mm 2 mps 745 mmHg 84%
05:00 +19°C° 0 mm 2 mps 746 mmHg 78%
06:00 +21°C° 0 mm 2 mps 746 mmHg 73%
07:00 +23°C° 0 mm 2 mps 746 mmHg 67%
08:00 +24°C° 0 mm 3 mps 746 mmHg 62%
09:00 +25°C° 0 mm 3 mps 746 mmHg 58%
10:00 +26°C° 0 mm 3 mps 746 mmHg 53%
11:00 +26°C° 0 mm 3 mps 746 mmHg 52%
12:00 +27°C° 0 mm 4 mps 746 mmHg 50%
13:00 +28°C° 0 mm 4 mps 745 mmHg 49%
14:00 +28°C° 0 mm 4 mps 745 mmHg 49%
15:00 +28°C° 0 mm 3 mps 745 mmHg 50%
16:00 +28°C° 0 mm 3 mps 745 mmHg 50%
17:00 +27°C° 0 mm 3 mps 745 mmHg 55%
18:00 +26°C° 0 mm 2 mps 744 mmHg 61%
19:00 +25°C° 0 mm 2 mps 744 mmHg 67%
20:00 +24°C° 0 mm 2 mps 744 mmHg 73%
21:00 +21°C° 0 mm 2 mps 744 mmHg 79%
22:00 +21°C° 0 mm 1 mps 744 mmHg 85%
23:00 +21°C° 0 mm 1 mps 744 mmHg 87%

Day after tomorrow, 27 July, Tuesday

Time Temperature Precipitation Wind Pressure Humidity
00:00 +20°C° 0 mm 1 mps 744 mmHg 89%
01:00 +20°C° 0 mm 1 mps 744 mmHg 91%
02:00 +20°C° 0 mm 1 mps 744 mmHg 91%
03:00 +20°C° 0 mm 1 mps 744 mmHg 91%
04:00 +19°C° 0 mm 1 mps 744 mmHg 91%
05:00 +20°C° 0 mm 2 mps 744 mmHg 85%
06:00 +21°C° 0 mm 2 mps 744 mmHg 80%
07:00 +22°C° 0 mm 3 mps 745 mmHg 74%
08:00 +24°C° 0 mm 3 mps 745 mmHg 66%
09:00 +26°C° 0 mm 3 mps 745 mmHg 58%
10:00 +28°C° 0 mm 3 mps 745 mmHg 50%
11:00 +28°C° 0.1 mm 4 mps 745 mmHg 49%
12:00 +28°C° 0.1 mm 4 mps 745 mmHg 49%
13:00 +29°C° 0.1 mm 4 mps 745 mmHg 48%
14:00 +28°C° 0.1 mm 4 mps 745 mmHg 48%
15:00 +28°C° 0.1 mm 3 mps 745 mmHg 49%
16:00 +28°C° 0.1 mm 3 mps 745 mmHg 49%
17:00 +27°C° 0 mm 3 mps 745 mmHg 54%
18:00 +25°C° 0 mm 2 mps 745 mmHg 59%
19:00 +24°C° 0 mm 2 mps 745 mmHg 64%
20:00 +23°C° 0 mm 1 mps 745 mmHg 68%
21:00 +22°C° 0 mm 1 mps 745 mmHg 73%
22:00 +21°C° 0 mm 1 mps 745 mmHg 77%
23:00 +20°C° 0.1 mm 1 mps 745 mmHg 80%

28 July, Wednesday

Time Temperature Precipitation Wind Pressure Humidity
00:00 +19°C° 0.1 mm 2 mps 745 mmHg 82%
01:00 +18°C° 0.1 mm 2 mps 745 mmHg 85%
02:00 +18°C° 0 mm 2 mps 745 mmHg 87%
03:00 +17°C° 0 mm 2 mps 745 mmHg 89%
04:00 +17°C° 0 mm 2 mps 745 mmHg 91%
05:00 +18°C° 0 mm 3 mps 745 mmHg 85%
06:00 +20°C° 0 mm 3 mps 745 mmHg 78%
07:00 +21°C° 0 mm 3 mps 745 mmHg 71%
08:00 +24°C° 0 mm 3 mps 745 mmHg 62%
09:00 +25°C° 0 mm 4 mps 745 mmHg 53%
10:00 +27°C° 0 mm 4 mps 745 mmHg 43%
11:00 +27°C° 0 mm 4 mps 745 mmHg 42%
12:00 +27°C° 0 mm 5 mps 745 mmHg 41%
13:00 +28°C° 0 mm 5 mps 745 mmHg 39%
14:00 +25°C° 0.1 mm 5 mps 745 mmHg 51%
15:00 +22°C° 0.1 mm 5 mps 746 mmHg 64%
16:00 +20°C° 0.1 mm 5 mps 746 mmHg 76%
17:00 +19°C° 0.2 mm 4 mps 746 mmHg 80%
18:00 +19°C° 0.2 mm 3 mps 746 mmHg 84%
19:00 +19°C° 0.2 mm 3 mps 745 mmHg 89%
20:00 +18°C° 0 mm 3 mps 745 mmHg 91%
21:00 +18°C° 0 mm 3 mps 746 mmHg 93%
22:00 +17°C° 0 mm 3 mps 746 mmHg 95%
23:00 +17°C° 0 mm 2 mps 746 mmHg 94%

29 July, Thursday

Time Temperature Precipitation Wind Pressure Humidity
00:00 +17°C° 0 mm 2 mps 746 mmHg 94%
01:00 +17°C° 0 mm 2 mps 745 mmHg 94%
02:00 +17°C° 0 mm 2 mps 745 mmHg 95%
03:00 +16°C° 0 mm 2 mps 746 mmHg 96%
04:00 +15°C° 0 mm 2 mps 746 mmHg 97%
05:00 +17°C° 0 mm 2 mps 746 mmHg 91%
06:00 +18°C° 0 mm 2 mps 746 mmHg 85%
07:00 +20°C° 0 mm 2 mps 746 mmHg 79%
08:00 +22°C° 0 mm 3 mps 746 mmHg 70%
09:00 +23°C° 0 mm 4 mps 745 mmHg 60%
10:00 +26°C° 0 mm 4 mps 745 mmHg 50%
11:00 +27°C° 0 mm 5 mps 745 mmHg 47%
12:00 +28°C° 0 mm 5 mps 745 mmHg 43%
13:00 +28°C° 0 mm 6 mps 745 mmHg 40%
14:00 +28°C° 0 mm 5 mps 744 mmHg 42%
15:00 +28°C° 0 mm 4 mps 744 mmHg 44%
16:00 +27°C° 0 mm 3 mps 744 mmHg 46%
17:00 +25°C° 0.3 mm 3 mps 744 mmHg 58%
18:00 +22°C° 0.3 mm 4 mps 744 mmHg 70%
19:00 +21°C° 0.3 mm 4 mps 744 mmHg 82%
20:00 +20°C° 0.1 mm 3 mps 745 mmHg 86%
21:00 +19°C° 0.1 mm 2 mps 745 mmHg 90%
22:00 +18°C° 0.1 mm 2 mps 745 mmHg 93%
23:00 +17°C° 0 mm 2 mps 745 mmHg 93%

30 July, Friday

Time Temperature Precipitation Wind Pressure Humidity
00:00 +18°C° 0 mm 1 mps 745 mmHg 93%
01:00 +16°C° 0 mm 1 mps 745 mmHg 93%
02:00 +16°C° 0 mm 1 mps 745 mmHg 93%
03:00 +16°C° 0 mm 1 mps 745 mmHg 93%
04:00 +16°C° 0 mm 1 mps 745 mmHg 92%
05:00 +17°C° 0 mm 2 mps 745 mmHg 86%
06:00 +18°C° 0 mm 2 mps 746 mmHg 81%
07:00 +19°C° 0 mm 2 mps 746 mmHg 75%
08:00 +21°C° 0 mm 3 mps 746 mmHg 64%
09:00 +22°C° 0 mm 3 mps 745 mmHg 52%
10:00 +25°C° 0 mm 4 mps 745 mmHg 41%
11:00 +26°C° 0 mm 5 mps 745 mmHg 39%
12:00 +26°C° 0 mm 5 mps 745 mmHg 36%
13:00 +27°C° 0 mm 5 mps 745 mmHg 34%
14:00 +27°C° 0 mm 5 mps 744 mmHg 33%
15:00 +27°C° 0 mm 5 mps 744 mmHg 33%
16:00 +26°C° 0 mm 5 mps 744 mmHg 32%
17:00 +25°C° 0 mm 4 mps 744 mmHg 36%
18:00 +23°C° 0 mm 4 mps 744 mmHg 39%
19:00 +21°C° 0 mm 3 mps 744 mmHg 43%
20:00 +19°C° 0 mm 3 mps 744 mmHg 48%
21:00 +18°C° 0 mm 2 mps 744 mmHg 53%
22:00 +16°C° 0 mm 2 mps 745 mmHg 59%
23:00 +16°C° 0 mm 2 mps 745 mmHg 61%
Show more